Tracking 20942 objects as of 12-Jul-2020
HD Live streaming from Space Station
objects crossing your sky now

COSMOS 1394

Track COSMOS 1394 now!
10-day predictions
COSMOS 1394 is classified as:


NORAD ID: 13381
Int'l Code: 1982-073G
Perigee: 1,481.4 km
Apogee: 1,502.5 km
Inclination: 74.0 °
Period: 115.6 minutes
Semi major axis: 7862 km
RCS: 0.7023 m2 (medium)
Launch date: July 21, 1982
Source: Commonwealth of Independent States (former USSR) (CIS)
Launch site: PLESETSK MISSILE AND SPACE COMPLEX (PKMTR)
aabbcc
Your satellite tracking list
Your tracking list is empty




NASA's NSSDC Master Catalog

Two Line Element Set (TLE):
1 13381U 82073G   20193.81840286 +.00000000 +00000-0 +11013-3 0  9997
2 13381 074.0148 124.8819 0013423 147.8524 275.9245 12.45154275726172
Source of the keplerian elements: AFSPC